User: anonymous   Login
Location: The D'Auria's Ocala Star Observatory
(29.0276°N, 82.1742°W)
Time: 19:11:04
(UTC-04:00)
Language:

Okean 3 Rocket - Orbit

View from above orbital plane
View from above orbital plane
View from above satellite
View from above satellite

Ground track
Ground track

The orbit data is extracted from the following two-line orbital elements,

1 21398U 91039B   16121.84200134  .00000126  00000-0  13670-4 0  9998
2 21398  82.5232 249.9971 0023043  94.2216  67.7906 14.79599777342935
Epoch (UTC): 30 April 2016 20:12:28
Eccentricity: 0.0023043
inclination: 82.5232°
perigee height: 614 km
apogee height: 647 km
right ascension of ascending node: 249.9971°
argument of perigee: 94.2216°
revolutions per day: 14.79599777
mean anomaly at epoch: 67.7906°
orbit number at epoch: 34293

The dashed part of the orbit path shows where the satellite is in the earth's shadow,  

DLR